Weather Service Report


706 
ASUS43 KLSX 150207
RWRMO 

WEATHER SUMMARY FOR MISSOURI
NATIONAL WEATHER SERVICE SPRINGFIELD MO
900 PM CDT SUN SEP 14 2014

NOTE: "FAIR" INDICATES FEW OR NO CLOUDS BELOW 12,000 FEET WITH NO
       SIGNIFICANT WEATHER AND/OR OBSTRUCTIONS TO VISIBILITY.
       CURRENT SKY AND/OR WEATHER CONDITIONS ARE NOT AVAILABLE FOR
       CHILLICOTHE AND FARMINGTON.

MOZ001>031-035>038-043-044-053-054-150300-
...NORTHERN AND WESTERN MISSOURI...
  
CITY           SKY/WX    TMP DP  RH WIND       PRES   REMARKS
KANSAS CTY INT CLOUDY    66  58  75 S6        30.11R                  
KANSAS C DTWN  CLOUDY    70  56  61 S7        30.10R                  
LEE'S SUMMIT   CLEAR     65  56  72 S5        30.11R                  
ST JOSEPH      CLOUDY    67  57  70 SE7       30.10R                  
CHILLICOTHE      N/A     66  55  67 SE5       30.12S                  
KIRKSVILLE     PTCLDY    57  52  83 SE3       30.15R                  
     
$$
MOZ066>068-077>081-088>096-101>105-150300-
...SOUTHWEST MISSOURI...
  
CITY           SKY/WX    TMP DP  RH WIND       PRES   REMARKS
SPRINGFIELD    PTCLDY    66  52  60 SE9       30.16R                  
JOPLIN         PTCLDY    69  59  70 SE7       30.13S                  
               
$$
MOZ032>034-039>042-045>050-055>058-069>072-150300-
...CENTRAL MISSOURI...  
  
CITY           SKY/WX    TMP DP  RH WIND       PRES   REMARKS
COLUMBIA       MOCLDY    61  53  75 SE7       30.16S                  
JEFFERSON CITY CLOUDY    64  56  75 SE3       30.16R                  
ROLLA          CLOUDY    62  49  62 E8        30.17R                  
SEDALIA        CLEAR     62  55  77 SE9       30.14S                  
WHITEMAN AFB   CLEAR     62  57  82 SE7       30.12S                  
OSAGE BEACH    CLEAR     59  52  77 E3        30.16S                  
               
$$
MOZ051-052-059>065-150300-
...EAST CENTRAL MISSOURI...
  
CITY           SKY/WX    TMP DP  RH WIND       PRES   REMARKS
ST LOUIS INTL  CLEAR     63  48  58 SE8       30.19R                  
SPIRIT OF STL  CLEAR     57  53  86 CALM      30.18R                  
ST CHARLES     CLEAR     57  52  83 E3        30.18S                  
                   
$$
MOZ072>076-082>087-097>100-106>115-150300-
...SOUTH CENTRAL AND SOUTHEAST MISSOURI...
  
CITY           SKY/WX    TMP DP  RH WIND       PRES   REMARKS
CAPE GIRARDEAU CLEAR     56  54  93 CALM      30.19R                  
FARMINGTON     CLEAR     57  50  77 CALM      30.22R                  
POPLAR BLUFF   CLEAR     58  54  86 CALM      30.18R                  
WEST PLAINS    PTCLDY    61  51  70 CALM      30.20S                  
                                       
$$

Return to Home page


Western Regional Climate Center, wrcc@dri.edu